Location: Colonia Mina de C?rbuni
(46.1667°N, 22.7167°E)
Time: 00:11:17
(UTC+00:00)

Vanguard 2 Rocket - All Passes

Search period start: 17 April 2024 00:00
Search period end: 27 April 2024 00:00
Orbit: 555 x 3307 km, 32.9° (Epoch: 16 April)

Date Brightness Start Highest point End Pass type
(mag) Time Alt. Az. Time Alt. Az. Time Alt. Az.
17 Apr - 02:08:05 10° W 02:23:01 33° SSW 02:33:22 10° SSE visible
17 Apr - 18:20:45 10° S 18:33:12 24° SE 18:47:08 10° E visible
17 Apr - 20:30:50 10° SW 20:48:07 45° SSE 21:05:21 10° E visible
17 Apr - 22:45:29 10° WSW 23:04:36 53° S 23:20:11 10° ESE visible
18 Apr - 01:02:54 10° W 01:20:12 42° SSW 01:32:29 10° SE visible
18 Apr - 03:23:38 10° W 03:33:07 18° SW 03:40:29 10° S daylight
18 Apr - 17:21:47 10° SSE 17:30:29 16° SE 17:40:17 10° E daylight
18 Apr - 19:28:45 10° SSW 19:44:20 39° SSE 20:01:27 10° E visible
18 Apr - 21:41:52 10° WSW 22:00:28 53° S 22:17:29 10° ESE visible
18 Apr - 23:58:11 10° W 00:16:48 48° SSW 00:30:57 10° SE visible
19 Apr - 02:17:10 10° W 02:30:59 28° SW 02:41:08 10° SSE visible
19 Apr - 18:27:31 10° SSW 18:40:58 31° SE 18:56:45 10° E visible
19 Apr - 20:38:53 10° SW 20:56:19 50° SSE 21:14:13 10° E visible
19 Apr - 22:53:58 10° WSW 23:12:57 53° S 23:28:51 10° ESE visible
20 Apr - 01:11:41 10° W 01:28:17 36° SSW 01:40:35 10° SSE visible
20 Apr - 03:34:52 10° WSW 03:40:48 13° SW 03:45:55 10° SSW daylight
20 Apr - 17:27:21 10° S 17:38:06 22° SE 17:51:01 10° E visible
20 Apr - 19:36:33 10° SW 19:52:22 44° SSE 20:10:22 10° E visible
20 Apr - 21:50:17 10° WSW 22:08:48 54° S 22:26:10 10° ESE visible
21 Apr - 00:06:50 10° W 00:25:00 44° SSW 00:39:17 10° SE visible
21 Apr - 02:26:42 10° W 02:38:45 22° SW 02:48:12 10° S visible
21 Apr - 16:29:17 10° SSE 16:35:45 14° SE 16:43:07 10° ESE daylight
21 Apr - 18:34:56 10° SSW 18:48:49 37° SSE 19:05:53 10° E visible
21 Apr - 20:47:10 10° WSW 21:04:34 53° S 21:22:55 10° ESE visible
21 Apr - 23:02:33 10° W 23:21:13 50° SSW 23:37:18 10° SE visible
22 Apr - 01:20:41 10° W 01:36:10 31° SW 01:48:15 10° SSE visible
22 Apr - 17:34:09 10° SSW 17:45:47 28° SE 18:00:38 10° E visible
22 Apr - 19:44:41 10° SW 20:00:30 49° SSE 20:19:06 10° E visible
22 Apr - 21:58:49 10° WSW 22:17:06 53° S 22:34:41 10° ESE visible
23 Apr - 00:15:36 10° W 00:33:01 39° SSW 00:47:15 10° SSE visible
23 Apr - 02:37:14 10° W 02:46:20 16° SW 02:54:05 10° SSW visible
23 Apr - 16:34:32 10° S 16:43:18 20° SE 16:54:16 10° E daylight
23 Apr - 18:42:49 10° SW 18:56:47 42° SSE 19:14:42 10° E visible
23 Apr - 20:55:39 10° WSW 21:12:50 54° S 21:31:28 10° ESE visible
23 Apr - 23:11:13 10° W 23:29:22 46° SSW 23:45:28 10° SE visible
24 Apr - 01:30:05 10° W 01:43:52 24° SW 01:55:16 10° S visible
24 Apr - 15:38:27 10° SE 15:41:19 11° SE 15:44:25 10° ESE daylight
24 Apr - 17:41:38 10° SSW 17:53:36 34° SSE 18:09:42 10° E visible
24 Apr - 19:53:03 10° WSW 20:08:41 52° S 20:27:39 10° ESE visible
24 Apr - 22:07:27 10° W 22:25:19 51° SSW 22:42:59 10° SE visible
25 Apr - 00:24:35 10° W 00:40:52 33° SW 00:54:47 10° SSE visible
25 Apr - 02:51:50 10° WSW 02:53:48 10° SW 02:55:43 10° SW visible
25 Apr - 16:41:16 10° S 16:50:58 25° SE 17:03:59 10° E daylight
25 Apr - 18:51:00 10° SW 19:04:52 47° SSE 19:23:17 10° E visible
25 Apr - 21:04:15 10° WSW 21:21:06 53° S 21:39:50 10° ESE visible
25 Apr - 23:20:02 10° W 23:37:21 40° SSW 23:53:18 10° SE visible
26 Apr - 01:40:17 10° W 01:51:26 18° SW 02:01:14 10° SSW visible
26 Apr - 15:42:20 10° SSE 15:48:53 16° SE 15:57:02 10° E daylight
26 Apr - 17:49:33 10° SW 18:01:32 40° SSE 18:18:25 10° E visible
26 Apr - 20:01:34 10° WSW 20:16:57 53° S 20:36:03 10° ESE visible
26 Apr - 22:16:11 10° W 22:33:27 47° SSW 22:50:59 10° SE visible
